Location: Unspecified
(17.6330°N, 0.0000°E)
Time: 17:05:40
(UTC+00:00)

Courier 1B Rocket - Pass Details

Date: 03 July 2019
Orbit: 920 x 1202 km, 28.2° (Epoch: 19 July)

Event Time Altitude Azimuth Distance (km) Brightness Sun altitude
Rises 19:14:39 0° 210° (SSW) 3,896 8.2 -8.5°
Reaches altitude 10° 19:18:04 10° 195° (SSW) 2,987 7.4 -9.2°
Maximum altitude 19:23:32 22° 147° (SSE) 2,279 6.4 -10.3°
Enters shadow 19:28:13 13° 105° (ESE) 2,879 6.8 -11.3°
